TimeEDT,TemperatureF,Dew PointF,Humidity,Sea Level PressureIn,VisibilityMPH,Wind Direction,Wind SpeedMPH,Gust SpeedMPH,PrecipitationIn,Events,Conditions,WindDirDegrees,DateUTC
12:53 AM,55.9,42.1,60,30.07,10.0,NNW,9.2,-,N/A,,Mostly Cloudy,330,2012-10-11 04:53:00
1:53 AM,52.0,42.1,69,30.09,10.0,NNW,6.9,-,N/A,,Clear,330,2012-10-11 05:53:00
2:53 AM,50.0,41.0,71,30.10,10.0,NW,6.9,-,N/A,,Clear,320,2012-10-11 06:53:00
3:53 AM,48.0,41.0,77,30.12,10.0,NNW,5.8,-,N/A,,Clear,330,2012-10-11 07:53:00
4:53 AM,48.0,41.0,77,30.15,10.0,West,3.5,-,N/A,,Clear,280,2012-10-11 08:53:00
5:53 AM,42.1,39.9,92,30.17,10.0,Calm,Calm,-,N/A,,Clear,0,2012-10-11 09:53:00
6:53 AM,42.1,39.9,92,30.20,10.0,Calm,Calm,-,N/A,,Clear,0,2012-10-11 10:53:00
7:53 AM,46.0,42.1,86,30.23,10.0,NW,3.5,-,N/A,,Clear,320,2012-10-11 11:53:00
8:53 AM,51.1,39.9,66,30.25,10.0,NNW,6.9,-,N/A,,Clear,330,2012-10-11 12:53:00
9:53 AM,54.0,39.0,57,30.27,10.0,NNW,11.5,-,N/A,,Clear,330,2012-10-11 13:53:00
10:53 AM,55.9,37.0,49,30.28,10.0,NW,8.1,-,N/A,,Clear,320,2012-10-11 14:53:00
11:53 AM,57.0,37.0,47,30.27,10.0,NNW,4.6,-,N/A,,Clear,340,2012-10-11 15:53:00
12:53 PM,59.0,37.0,44,30.25,10.0,NNW,8.1,-,N/A,,Clear,330,2012-10-11 16:53:00
1:53 PM,61.0,37.0,41,30.23,10.0,Variable,5.8,-,N/A,,Clear,0,2012-10-11 17:53:00
2:53 PM,60.1,42.1,51,30.23,10.0,Variable,3.5,-,N/A,,Clear,0,2012-10-11 18:53:00
3:53 PM,61.0,39.9,46,30.22,10.0,WSW,6.9,-,N/A,,Clear,240,2012-10-11 19:53:00
4:53 PM,60.1,43.0,53,30.21,10.0,SW,9.2,-,N/A,,Clear,220,2012-10-11 20:53:00
7:53 PM,51.1,43.0,74,30.23,10.0,West,5.8,-,N/A,,Clear,260,2012-10-11 23:53:00
8:53 PM,48.9,41.0,74,30.24,10.0,West,3.5,-,N/A,,Clear,260,2012-10-12 00:53:00
9:53 PM,44.1,39.9,85,30.24,10.0,Calm,Calm,-,N/A,,Clear,0,2012-10-12 01:53:00
10:53 PM,43.0,41.0,93,30.23,10.0,Calm,Calm,-,N/A,,Clear,0,2012-10-12 02:53:00
11:53 PM,42.1,39.9,92,30.22,10.0,Calm,Calm,-,N/A,,Clear,0,2012-10-12 03:53:00